User: anonymous   Login
Location: Newark
(50.8086°N, 4.3114°E)
Time: 17:13:58
(UTC+00:00)
Language:

LO-87 - Orbit

View from above orbital plane
View from above orbital plane
View from above satellite
View from above satellite

Ground track
Ground track

The orbit data is extracted from the following two-line orbital elements,

1 41557U 16033B   20025.49038224  .00000919  00000-0  36688-4 0  9990
2 41557  97.4092 116.6747 0012363 233.1718 126.8388 15.27681959203797
Epoch (UTC): 25 January 2020 11:46:09
Eccentricity: 0.0012363
inclination: 97.4092°
perigee height: 474 km
apogee height: 491 km
right ascension of ascending node: 116.6747°
argument of perigee: 233.1718°
revolutions per day: 15.27681959
mean anomaly at epoch: 126.8388°
orbit number at epoch: 20379

The dashed part of the orbit path shows where the satellite is in the earth's shadow,  

DLR